| time (UTC) | temp F | wind direction | speed knots | gust knots | rain 1hr in | rain 24hr in | rain mn in | humidity % | barometer mb |
| 20260506023919 | 48 | 61 | 2.6 | 7.0 | 0.00 | 0.00 | 0.00 | 89 | 1008.8 |
| 20260506023420 | 48 | 105 | 3.5 | 8.7 | 0.00 | 0.00 | 0.00 | 89 | 1008.8 |
| 20260506022919 | 48 | 53 | 2.6 | 8.7 | 0.00 | 0.00 | 0.00 | 89 | 1008.9 |
| 20260506022419 | 48 | 76 | 2.6 | 8.7 | 0.00 | 0.00 | 0.00 | 89 | 1008.9 |
| 20260506021919 | 48 | 40 | 2.6 | 8.7 | 0.00 | 0.00 | 0.00 | 89 | 1008.8 |
| 20260506021418 | 48 | 52 | 2.6 | 5.2 | 0.00 | 0.00 | 0.00 | 89 | 1008.9 |
| 20260506020917 | 49 | 42 | 2.6 | 7.0 | 0.00 | 0.00 | 0.00 | 89 | 1008.9 |
| 20260506020414 | 49 | 59 | 3.5 | 7.0 | 0.00 | 0.00 | 0.00 | 89 | 1008.9 |
| 20260506015913 | 49 | 28 | 2.6 | 5.2 | 0.00 | 0.00 | 0.00 | 89 | 1008.9 |
| 20260506015412 | 49 | 25 | 2.6 | 5.2 | 0.00 | 0.00 | 0.00 | 88 | 1008.9 |
| 20260506014912 | 49 | 71 | 2.6 | 5.2 | 0.00 | 0.00 | 0.00 | 88 | 1008.9 |
| 20260506014411 | 49 | 38 | 1.7 | 4.3 | 0.00 | 0.00 | 0.00 | 88 | 1008.9 |
| 20260506013910 | 49 | 45 | 1.7 | 5.2 | 0.00 | 0.00 | 0.00 | 88 | 1009.0 |
| 20260506013407 | 49 | 22 | 2.6 | 5.2 | 0.00 | 0.00 | 0.00 | 88 | 1008.9 |
| 20260506012907 | 49 | 30 | 2.6 | 6.1 | 0.00 | 0.00 | 0.00 | 88 | 1009.0 |
| 20260506012408 | 49 | 55 | 3.5 | 8.7 | 0.00 | 0.00 | 0.00 | 88 | 1009.0 |
| 20260506012129 | 49 | 37 | 4.3 | 8.7 | 0.00 | 0.00 | 0.00 | 88 | 1009.1 |
| 20260506011359 | 49 | 111 | 4.3 | 10.4 | 0.00 | 0.00 | 0.00 | 88 | 1009.1 |
| 20260506010859 | 49 | 20 | 4.3 | 10.4 | 0.00 | 0.00 | 0.00 | 87 | 1009.0 |
| 20260506010359 | 49 | 66 | 4.3 | 9.6 | 0.00 | 0.00 | 0.00 | 87 | 1009.1 |
| 20260506005900 | 50 | 355 | 5.2 | 9.6 | 0.00 | 0.00 | 0.00 | 87 | 1009.0 |
| 20260506005359 | 50 | 52 | 5.2 | 12.2 | 0.00 | 0.00 | 0.00 | 87 | 1009.0 |
| 20260506004900 | 50 | 49 | 5.2 | 12.2 | 0.00 | 0.00 | 0.00 | 86 | 1009.0 |
| 20260506004359 | 50 | 59 | 5.2 | 10.4 | 0.00 | 0.00 | 0.00 | 86 | 1009.1 |
| 20260506003900 | 50 | 39 | 4.3 | 10.4 | 0.00 | 0.00 | 0.00 | 86 | 1009.2 |
| 20260506003400 | 50 | 52 | 4.3 | 8.7 | 0.00 | 0.00 | 0.00 | 86 | 1009.3 |
| 20260506002900 | 50 | 36 | 4.3 | 8.7 | 0.00 | 0.00 | 0.00 | 86 | 1009.4 |
| 20260506002400 | 50 | 71 | 4.3 | 8.7 | 0.00 | 0.00 | 0.00 | 86 | 1009.5 |
| 20260506001900 | 50 | 70 | 3.5 | 9.6 | 0.00 | 0.00 | 0.00 | 86 | 1009.5 |
| 20260506001359 | 50 | 67 | 3.5 | 11.3 | 0.00 | 0.00 | 0.00 | 85 | 1009.5 |
| 20260506000858 | 50 | 28 | 4.3 | 11.3 | 0.00 | 0.00 | 0.00 | 85 | 1009.5 |
| 20260506000358 | 50 | 33 | 4.3 | 8.7 | 0.00 | 0.00 | 0.00 | 85 | 1009.5 |
| 20260505235857 | 50 | 17 | 3.5 | 8.7 | 0.00 | 0.00 | 0.00 | 84 | 1009.5 |
| 20260505235357 | 50 | 46 | 4.3 | 10.4 | 0.00 | 0.00 | 0.00 | 84 | 1009.5 |
| 20260505234857 | 50 | 24 | 6.1 | 12.2 | 0.00 | 0.00 | 0.00 | 84 | 1009.4 |
| 20260505234357 | 50 | 32 | 6.1 | 12.2 | 0.00 | 0.00 | 0.00 | 84 | 1009.4 |
| 20260505233857 | 50 | 69 | 6.1 | 11.3 | 0.00 | 0.00 | 0.00 | 84 | 1009.5 |
| 20260505233357 | 50 | 32 | 6.1 | 11.3 | 0.00 | 0.00 | 0.00 | 84 | 1009.5 |
| 20260505232857 | 50 | 38 | 6.1 | 10.4 | 0.00 | 0.00 | 0.00 | 84 | 1009.6 |
| 20260505232357 | 50 | 32 | 6.1 | 13.0 | 0.00 | 0.00 | 0.00 | 84 | 1009.7 |
| 20260505231857 | 50 | 27 | 7.0 | 13.0 | 0.00 | 0.00 | 0.00 | 84 | 1009.6 |
| 20260505231357 | 49 | 16 | 7.0 | 12.2 | 0.00 | 0.00 | 0.00 | 84 | 1009.6 |
| 20260505230857 | 49 | 42 | 7.8 | 13.9 | 0.00 | 0.00 | 0.00 | 85 | 1009.8 |
| 20260505230358 | 49 | 49 | 7.8 | 14.8 | 0.00 | 0.00 | 0.00 | 85 | 1009.7 |
| 20260505225857 | 49 | 48 | 7.8 | 14.8 | 0.00 | 0.00 | 0.00 | 85 | 1009.7 |
| 20260505225355 | 49 | 53 | 7.8 | 15.6 | 0.00 | 0.00 | 0.00 | 85 | 1009.7 |
| 20260505224848 | 49 | 57 | 7.8 | 15.6 | 0.00 | 0.00 | 0.00 | 85 | 1009.8 |
| 20260505224350 | 49 | 27 | 7.8 | 13.9 | 0.00 | 0.00 | 0.00 | 85 | 1009.9 |
| 20260505223849 | 49 | 47 | 7.0 | 13.9 | 0.00 | 0.00 | 0.00 | 85 | 1009.9 |
| 20260505223350 | 49 | 51 | 6.1 | 12.2 | 0.00 | 0.00 | 0.00 | 85 | 1010.0 |
| 20260505222849 | 49 | 60 | 5.2 | 10.4 | 0.00 | 0.00 | 0.00 | 85 | 1010.2 |
| 20260505222349 | 49 | 41 | 5.2 | 9.6 | 0.00 | 0.00 | 0.00 | 85 | 1010.1 |
| 20260505221850 | 49 | 19 | 6.1 | 11.3 | 0.00 | 0.00 | 0.00 | 85 | 1010.2 |
| 20260505221349 | 49 | 49 | 6.1 | 12.2 | 0.00 | 0.00 | 0.00 | 85 | 1010.3 |
| 20260505220849 | 49 | 40 | 6.1 | 13.0 | 0.00 | 0.00 | 0.00 | 85 | 1010.4 |
| 20260505220608 | 49 | 35 | 7.0 | 13.9 | 0.00 | 0.00 | 0.00 | 85 | 1010.4 |
| 20260505215848 | 49 | 26 | 7.0 | 13.9 | 0.00 | 0.00 | 0.00 | 85 | 1010.4 |
| 20260505215349 | 49 | 40 | 7.0 | 12.2 | 0.00 | 0.00 | 0.00 | 85 | 1010.5 |
| 20260505214849 | 49 | 34 | 6.1 | 12.2 | 0.00 | 0.00 | 0.00 | 85 | 1010.5 |
| 20260505214608 | 49 | 39 | 6.1 | 10.4 | 0.00 | 0.00 | 0.00 | 85 | 1010.6 |
| 20260505213849 | 49 | 32 | 6.1 | 10.4 | 0.00 | 0.00 | 0.00 | 85 | 1010.6 |
| 20260505213349 | 49 | 53 | 5.2 | 11.3 | 0.00 | 0.00 | 0.00 | 85 | 1010.7 |
| 20260505212848 | 49 | 42 | 4.3 | 11.3 | 0.00 | 0.00 | 0.00 | 85 | 1010.6 |
| 20260505212345 | 49 | 39 | 4.3 | 9.6 | 0.00 | 0.00 | 0.00 | 85 | 1010.6 |
| 20260505211841 | 49 | 49 | 3.5 | 9.6 | 0.00 | 0.00 | 0.00 | 85 | 1010.6 |
| 20260505211340 | 49 | 54 | 4.3 | 13.0 | 0.00 | 0.00 | 0.00 | 84 | 1010.6 |
| 20260505210832 | 49 | 61 | 5.2 | 13.0 | 0.00 | 0.00 | 0.00 | 84 | 1010.6 |
| 20260505210333 | 49 | 0 | 4.3 | 11.3 | 0.00 | 0.00 | 0.00 | 84 | 1010.6 |
| 20260505205833 | 49 | 51 | 4.3 | 11.3 | 0.00 | 0.00 | 0.00 | 84 | 1010.7 |
| 20260505205642 | 49 | 51 | 4.3 | 12.2 | 0.00 | 0.00 | 0.00 | 84 | 1010.7 |
| 20260505205546 | 49 | 49 | 4.3 | 12.2 | 0.00 | 0.00 | 0.00 | 83 | 1010.7 |
| 20260505204330 | 49 | 50 | 5.2 | 9.6 | 0.00 | 0.00 | 0.00 | 83 | 1010.7 |
| 20260505203829 | 49 | 32 | 4.3 | 8.7 | 0.00 | 0.00 | 0.00 | 83 | 1010.7 |
| 20260505203551 | 49 | 355 | 3.5 | 9.6 | 0.00 | 0.00 | 0.00 | 83 | 1010.7 |
| 20260505202825 | 49 | 83 | 3.5 | 9.6 | 0.00 | 0.00 | 0.00 | 83 | 1010.7 |
| 20260505202325 | 49 | 42 | 4.3 | 12.2 | 0.00 | 0.00 | 0.00 | 83 | 1010.7 |
| 20260505201825 | 49 | 74 | 5.2 | 12.2 | 0.00 | 0.00 | 0.00 | 83 | 1010.8 |
| 20260505201322 | 49 | 53 | 6.1 | 11.3 | 0.00 | 0.00 | 0.00 | 83 | 1010.7 |
| 20260505201040 | 49 | 43 | 6.1 | 11.3 | 0.00 | 0.00 | 0.00 | 84 | 1010.7 |
| 20260505200322 | 49 | 40 | 4.3 | 9.6 | 0.00 | 0.00 | 0.00 | 84 | 1010.7 |
| 20260505195823 | 49 | 43 | 4.3 | 8.7 | 0.00 | 0.00 | 0.00 | 84 | 1010.7 |
| 20260505195321 | 49 | 53 | 4.3 | 10.4 | 0.00 | 0.00 | 0.00 | 84 | 1010.7 |
| 20260505194821 | 49 | 27 | 5.2 | 12.2 | 0.00 | 0.00 | 0.00 | 84 | 1010.7 |
| 20260505194319 | 49 | 348 | 6.1 | 12.2 | 0.00 | 0.00 | 0.00 | 84 | 1010.7 |
| 20260505193816 | 49 | 44 | 4.3 | 11.3 | 0.00 | 0.00 | 0.00 | 84 | 1010.7 |
| 20260505193308 | 49 | 28 | 5.2 | 11.3 | 0.00 | 0.00 | 0.00 | 85 | 1010.5 |
| 20260505192810 | 49 | 65 | 6.1 | 11.3 | 0.00 | 0.00 | 0.00 | 85 | 1010.6 |
| 20260505192305 | 49 | 32 | 6.1 | 11.3 | 0.00 | 0.00 | 0.00 | 85 | 1010.6 |
| 20260505191804 | 50 | 40 | 5.2 | 11.3 | 0.00 | 0.00 | 0.00 | 85 | 1010.7 |
| 20260505191522 | 50 | 38 | 6.1 | 11.3 | 0.00 | 0.00 | 0.00 | 85 | 1010.6 |
| 20260505190802 | 50 | 26 | 6.1 | 13.0 | 0.00 | 0.00 | 0.00 | 85 | 1010.6 |
| 20260505190255 | 50 | 34 | 5.2 | 13.0 | 0.00 | 0.00 | 0.00 | 85 | 1010.5 |
| 20260505185750 | 50 | 32 | 7.0 | 12.2 | 0.00 | 0.00 | 0.00 | 85 | 1010.5 |
| 20260505185250 | 50 | 38 | 7.0 | 12.2 | 0.00 | 0.00 | 0.00 | 85 | 1010.5 |
| 20260505184750 | 50 | 49 | 7.0 | 13.9 | 0.00 | 0.00 | 0.00 | 84 | 1010.4 |
| 20260505184249 | 50 | 38 | 7.0 | 13.9 | 0.00 | 0.00 | 0.00 | 84 | 1010.5 |
| 20260505183750 | 50 | 40 | 5.2 | 13.9 | 0.00 | 0.00 | 0.00 | 85 | 1010.5 |
| 20260505183248 | 50 | 57 | 5.2 | 12.2 | 0.00 | 0.00 | 0.00 | 85 | 1010.4 |
| 20260505182747 | 50 | 35 | 6.1 | 12.2 | 0.00 | 0.00 | 0.00 | 84 | 1010.4 |
| 20260505182246 | 50 | 69 | 6.1 | 11.3 | 0.00 | 0.00 | 0.00 | 84 | 1010.4 |
| 20260505181747 | 50 | 43 | 6.1 | 11.3 | 0.00 | 0.00 | 0.00 | 84 | 1010.3 |
| 20260505181246 | 50 | 32 | 6.1 | 12.2 | 0.00 | 0.00 | 0.00 | 84 | 1010.5 |
| 20260505180741 | 50 | 21 | 7.0 | 13.9 | 0.00 | 0.00 | 0.00 | 84 | 1010.5 |
| 20260505180241 | 50 | 32 | 7.0 | 15.6 | 0.00 | 0.00 | 0.00 | 83 | 1010.4 |
| 20260505175741 | 50 | 61 | 6.1 | 15.6 | 0.00 | 0.00 | 0.00 | 83 | 1010.5 |
| 20260505175241 | 51 | 33 | 5.2 | 11.3 | 0.00 | 0.00 | 0.00 | 83 | 1010.5 |
| 20260505174950 | 51 | 37 | 6.1 | 13.9 | 0.00 | 0.00 | 0.00 | 83 | 1010.4 |
| 20260505174233 | 51 | 25 | 7.0 | 13.9 | 0.00 | 0.00 | 0.00 | 83 | 1010.3 |
| 20260505173733 | 51 | 57 | 6.1 | 13.0 | 0.00 | 0.00 | 0.00 | 83 | 1010.4 |
| 20260505173233 | 51 | 70 | 6.1 | 13.0 | 0.00 | 0.00 | 0.00 | 83 | 1010.4 |
| 20260505172733 | 51 | 95 | 6.1 | 13.9 | 0.00 | 0.00 | 0.00 | 83 | 1010.5 |
| 20260505172452 | 51 | 30 | 6.1 | 13.9 | 0.00 | 0.00 | 0.00 | 83 | 1010.4 |
| 20260505171730 | 51 | 45 | 5.2 | 13.0 | 0.00 | 0.00 | 0.00 | 83 | 1010.4 |
| 20260505171229 | 51 | 34 | 6.1 | 13.0 | 0.00 | 0.00 | 0.00 | 83 | 1010.5 |
| 20260505170729 | 51 | 36 | 7.0 | 14.8 | 0.00 | 0.00 | 0.00 | 83 | 1010.5 |
| 20260505170229 | 51 | 36 | 7.8 | 14.8 | 0.00 | 0.00 | 0.00 | 83 | 1010.5 |
| 20260505165956 | 51 | 41 | 7.8 | 14.8 | 0.00 | 0.00 | 0.00 | 83 | 1010.5 |
| 20260505165222 | 51 | 46 | 7.0 | 14.8 | 0.00 | 0.00 | 0.00 | 83 | 1010.6 |
| 20260505164721 | 51 | 51 | 7.0 | 13.0 | 0.00 | 0.00 | 0.00 | 83 | 1010.7 |
| 20260505164221 | 51 | 35 | 7.0 | 12.2 | 0.00 | 0.00 | 0.00 | 83 | 1010.7 |
| 20260505163723 | 51 | 38 | 7.0 | 13.9 | 0.00 | 0.00 | 0.00 | 83 | 1010.7 |
| 20260505163219 | 51 | 50 | 7.8 | 13.9 | 0.00 | 0.00 | 0.00 | 82 | 1010.8 |
| 20260505162941 | 51 | 34 | 7.8 | 13.9 | 0.00 | 0.00 | 0.00 | 82 | 1010.7 |
| 20260505162217 | 51 | 26 | 7.8 | 13.0 | 0.00 | 0.00 | 0.00 | 82 | 1010.7 |
| 20260505161717 | 51 | 38 | 7.8 | 14.8 | 0.00 | 0.00 | 0.00 | 82 | 1010.8 |
| 20260505161217 | 51 | 57 | 7.0 | 14.8 | 0.00 | 0.00 | 0.00 | 82 | 1010.7 |
| 20260505160717 | 51 | 53 | 7.0 | 12.2 | 0.00 | 0.00 | 0.00 | 83 | 1010.7 |
| 20260505160215 | 51 | 30 | 7.8 | 13.9 | 0.00 | 0.00 | 0.00 | 83 | 1010.7 |
| 20260505152712 | 52 | 24 | 8.7 | 14.8 | 0.00 | 0.00 | 0.00 | 81 | 1010.9 |
| 20260505152212 | 52 | 49 | 7.0 | 14.8 | 0.00 | 0.00 | 0.00 | 81 | 1010.9 |
| 20260505151712 | 52 | 55 | 6.1 | 12.2 | 0.00 | 0.00 | 0.00 | 81 | 1010.9 |
| 20260505151224 | 52 | 9 | 6.1 | 11.3 | 0.00 | 0.00 | 0.00 | 81 | 1010.9 |
| 20260505150932 | 52 | 55 | 6.1 | 13.9 | 0.00 | 0.00 | 0.00 | 80 | 1011.0 |
| 20260505150211 | 52 | 34 | 7.0 | 13.9 | 0.00 | 0.00 | 0.00 | 80 | 1010.9 |
| 20260505140648 | 53 | 30 | 6.1 | 13.9 | 0.00 | 0.00 | 0.00 | 80 | 1011.2 |
| 20260505130153 | 52 | 61 | 5.2 | 11.3 | 0.00 | 0.00 | 0.00 | 81 | 1011.5 |
| 20260505124648 | 52 | 57 | 4.3 | 10.4 | 0.00 | 0.00 | 0.00 | 81 | 1011.6 |
| 20260505124409 | 52 | 41 | 4.3 | 10.4 | 0.00 | 0.00 | 0.00 | 82 | 1011.7 |
| 20260505123648 | 52 | 46 | 4.3 | 10.4 | 0.00 | 0.00 | 0.00 | 82 | 1011.7 |
| 20260505123148 | 52 | 355 | 4.3 | 10.4 | 0.00 | 0.00 | 0.00 | 82 | 1011.7 |
| 20260505122648 | 51 | 49 | 4.3 | 10.4 | 0.00 | 0.00 | 0.00 | 82 | 1011.7 |
| 20260505122149 | 51 | 47 | 4.3 | 8.7 | 0.00 | 0.00 | 0.00 | 82 | 1011.7 |
| 20260505121649 | 51 | 80 | 4.3 | 8.7 | 0.00 | 0.00 | 0.00 | 82 | 1011.7 |
| 20260505121150 | 51 | 39 | 4.3 | 9.6 | 0.00 | 0.00 | 0.00 | 82 | 1011.7 |
| 20260505120648 | 51 | 61 | 5.2 | 11.3 | 0.00 | 0.00 | 0.00 | 82 | 1011.7 |
| 20260505120147 | 51 | 35 | 5.2 | 11.3 | 0.00 | 0.00 | 0.00 | 81 | 1011.7 |
| 20260505115642 | 51 | 38 | 4.3 | 10.4 | 0.00 | 0.00 | 0.00 | 82 | 1011.8 |
| 20260505115403 | 51 | 53 | 4.3 | 9.6 | 0.00 | 0.00 | 0.00 | 82 | 1011.7 |
| 20260505114640 | 51 | 71 | 4.3 | 11.3 | 0.00 | 0.00 | 0.00 | 82 | 1011.7 |
| 20260505114140 | 51 | 41 | 5.2 | 12.2 | 0.00 | 0.00 | 0.00 | 81 | 1011.7 |
| 20260505113639 | 51 | 39 | 4.3 | 12.2 | 0.00 | 0.00 | 0.00 | 81 | 1011.8 |
| 20260505113151 | 51 | 24 | 4.3 | 9.6 | 0.00 | 0.00 | 0.00 | 81 | 1011.8 |
| 20260505112652 | 51 | 95 | 4.3 | 9.6 | 0.00 | 0.00 | 0.00 | 81 | 1011.8 |
| 20260505112137 | 51 | 60 | 4.3 | 10.4 | 0.00 | 0.00 | 0.00 | 82 | 1011.8 |
| 20260505111636 | 51 | 71 | 4.3 | 10.4 | 0.00 | 0.00 | 0.00 | 82 | 1011.9 |
| 20260505111137 | 51 | 42 | 5.2 | 10.4 | 0.00 | 0.00 | 0.00 | 82 | 1011.8 |
| 20260505110635 | 51 | 30 | 3.5 | 10.4 | 0.00 | 0.00 | 0.00 | 82 | 1011.8 |
| 20260505110413 | 51 | 71 | 3.5 | 10.4 | 0.00 | 0.00 | 0.00 | 82 | 1011.8 |
| 20260505102128 | 51 | 42 | 6.1 | 12.2 | 0.00 | 0.01 | 0.00 | 82 | 1011.8 |
| 20260505101629 | 50 | 34 | 5.2 | 12.2 | 0.00 | 0.01 | 0.00 | 82 | 1011.8 |
| 20260505101141 | 50 | 9 | 5.2 | 11.3 | 0.00 | 0.01 | 0.00 | 82 | 1011.9 |
| 20260505100627 | 51 | 44 | 5.2 | 11.3 | 0.00 | 0.01 | 0.00 | 82 | 1011.8 |
| 20260505100126 | 51 | 27 | 5.2 | 10.4 | 0.00 | 0.01 | 0.00 | 83 | 1011.9 |
| 20260505095626 | 50 | 60 | 5.2 | 10.4 | 0.00 | 0.01 | 0.00 | 82 | 1011.9 |
| 20260505095125 | 50 | 34 | 5.2 | 8.7 | 0.00 | 0.01 | 0.00 | 82 | 1011.9 |
| 20260505094624 | 50 | 51 | 6.1 | 11.3 | 0.00 | 0.01 | 0.00 | 82 | 1011.9 |
| 20260505094124 | 50 | 21 | 5.2 | 11.3 | 0.00 | 0.01 | 0.00 | 82 | 1011.9 |
| 20260505093624 | 50 | 30 | 5.2 | 9.6 | 0.00 | 0.01 | 0.00 | 82 | 1012.0 |
| 20260505093124 | 50 | 98 | 4.3 | 9.6 | 0.00 | 0.01 | 0.00 | 83 | 1012.0 |
| 20260505092625 | 50 | 37 | 4.3 | 9.6 | 0.00 | 0.01 | 0.00 | 83 | 1012.0 |
| 20260505092344 | 50 | 75 | 4.3 | 9.6 | 0.00 | 0.01 | 0.00 | 83 | 1012.2 |
| 20260505091624 | 50 | 38 | 3.5 | 9.6 | 0.00 | 0.01 | 0.00 | 83 | 1012.3 |
| 20260505091124 | 49 | 33 | 3.5 | 7.0 | 0.00 | 0.01 | 0.00 | 83 | 1012.4 |
| 20260505090624 | 49 | 41 | 3.5 | 7.0 | 0.00 | 0.01 | 0.00 | 83 | 1012.4 |
| 20260505090348 | 49 | 44 | 3.5 | 7.8 | 0.00 | 0.01 | 0.00 | 83 | 1012.5 |
| 20260505085622 | 49 | 86 | 2.6 | 7.8 | 0.00 | 0.01 | 0.00 | 83 | 1012.5 |
| 20260505085122 | 49 | 37 | 3.5 | 7.8 | 0.00 | 0.01 | 0.00 | 83 | 1012.5 |
| 20260505084622 | 49 | 34 | 4.3 | 9.6 | 0.00 | 0.01 | 0.00 | 83 | 1012.5 |
| 20260505084118 | 49 | 34 | 3.5 | 9.6 | 0.00 | 0.01 | 0.00 | 83 | 1012.5 |
| 20260505083618 | 49 | 34 | 2.6 | 6.1 | 0.00 | 0.01 | 0.00 | 83 | 1012.4 |
| 20260505083117 | 49 | 107 | 2.6 | 5.2 | 0.00 | 0.01 | 0.00 | 83 | 1012.4 |
| 20260505082616 | 48 | 26 | 3.5 | 7.0 | 0.00 | 0.01 | 0.00 | 83 | 1012.5 |
| 20260505082112 | 48 | 22 | 3.5 | 8.7 | 0.00 | 0.01 | 0.00 | 83 | 1012.4 |
| 20260505081833 | 48 | 34 | 3.5 | 8.7 | 0.00 | 0.01 | 0.00 | 83 | 1012.4 |
| 20260505081109 | 48 | 11 | 3.5 | 7.8 | 0.00 | 0.01 | 0.00 | 83 | 1012.4 |
| 20260505081051 | 48 | 28 | 3.5 | 7.8 | 0.00 | 0.01 | 0.00 | 83 | 1012.4 |
| 20260505080113 | 48 | 36 | 3.5 | 8.7 | 0.00 | 0.01 | 0.00 | 83 | 1012.4 |
| 20260505075828 | 48 | 61 | 4.3 | 9.6 | 0.00 | 0.01 | 0.00 | 83 | 1012.4 |
| 20260505075331 | 48 | 93 | 4.3 | 9.6 | 0.00 | 0.01 | 0.00 | 83 | 1012.4 |
| 20260505074819 | 48 | 58 | 3.5 | 7.8 | 0.00 | 0.01 | 0.00 | 84 | 1012.4 |
| 20260505074058 | 48 | 19 | 3.5 | 7.8 | 0.00 | 0.01 | 0.00 | 84 | 1012.4 |
| 20260505073559 | 48 | 34 | 3.5 | 8.7 | 0.00 | 0.01 | 0.00 | 84 | 1012.4 |
| 20260505073058 | 48 | 47 | 3.5 | 8.7 | 0.00 | 0.01 | 0.00 | 84 | 1012.4 |
| 20260505072556 | 48 | 48 | 3.5 | 8.7 | 0.00 | 0.01 | 0.00 | 84 | 1012.3 |
| 20260505072056 | 48 | 42 | 3.5 | 7.8 | 0.00 | 0.01 | 0.00 | 85 | 1012.4 |
| 20260505071807 | 48 | 54 | 3.5 | 8.7 | 0.00 | 0.01 | 0.00 | 85 | 1012.3 |
| 20260505071314 | 48 | 43 | 3.5 | 8.7 | 0.00 | 0.01 | 0.00 | 85 | 1012.4 |
| 20260505070546 | 48 | 56 | 3.5 | 8.7 | 0.00 | 0.01 | 0.00 | 85 | 1012.5 |
| 20260505070054 | 48 | 56 | 2.6 | 8.7 | 0.00 | 0.01 | 0.00 | 85 | 1012.5 |
| 20260505065529 | 47 | 53 | 2.6 | 8.7 | 0.00 | 0.01 | 0.00 | 85 | 1012.5 |
| 20260505065028 | 47 | 56 | 2.6 | 8.7 | 0.00 | 0.01 | 0.00 | 86 | 1012.6 |
| 20260505065018 | 47 | 76 | 2.6 | 7.0 | 0.00 | 0.01 | 0.00 | 86 | 1012.6 |
| 20260505064023 | 47 | 90 | 2.6 | 10.4 | 0.00 | 0.01 | 0.00 | 86 | 1012.6 |
| 20260505063515 | 47 | 44 | 3.5 | 10.4 | 0.00 | 0.01 | 0.00 | 86 | 1012.6 |
| 20260505063007 | 47 | 41 | 3.5 | 7.8 | 0.00 | 0.01 | 0.00 | 86 | 1012.6 |
| 20260505062508 | 47 | 32 | 2.6 | 7.8 | 0.00 | 0.01 | 0.00 | 86 | 1012.6 |
| 20260505062007 | 47 | 40 | 2.6 | 7.0 | 0.00 | 0.01 | 0.00 | 86 | 1012.5 |
| 20260505061502 | 47 | 40 | 2.6 | 7.8 | 0.00 | 0.01 | 0.00 | 86 | 1012.5 |
| 20260505061003 | 47 | 89 | 2.6 | 7.8 | 0.00 | 0.01 | 0.00 | 86 | 1012.4 |
| 20260505060503 | 47 | 41 | 2.6 | 8.7 | 0.00 | 0.01 | 0.00 | 86 | 1012.4 |
| 20260505060002 | 47 | 38 | 3.5 | 9.6 | 0.00 | 0.01 | 0.00 | 86 | 1012.4 |
| 20260505055459 | 47 | 80 | 3.5 | 9.6 | 0.00 | 0.01 | 0.00 | 86 | 1012.4 |
| 20260505054959 | 47 | 39 | 3.5 | 8.7 | 0.00 | 0.01 | 0.00 | 86 | 1012.4 |
| 20260505054509 | 47 | 40 | 3.5 | 10.4 | 0.00 | 0.01 | 0.00 | 86 | 1012.5 |
| 20260505053957 | 47 | 44 | 3.5 | 10.4 | 0.00 | 0.01 | 0.00 | 87 | 1012.5 |
| 20260505053457 | 47 | 13 | 2.6 | 8.7 | 0.00 | 0.01 | 0.00 | 86 | 1012.5 |
| 20260505052957 | 47 | 32 | 2.6 | 7.8 | 0.00 | 0.01 | 0.00 | 86 | 1012.5 |
| 20260505052458 | 47 | 46 | 2.6 | 6.1 | 0.00 | 0.01 | 0.00 | 87 | 1012.5 |
| 20260505051955 | 47 | 44 | 3.5 | 7.0 | 0.00 | 0.01 | 0.00 | 87 | 1012.4 |
| 20260505051452 | 47 | 54 | 3.5 | 8.7 | 0.00 | 0.01 | 0.00 | 87 | 1012.4 |
| 20260505050952 | 47 | 68 | 4.3 | 8.7 | 0.00 | 0.01 | 0.00 | 87 | 1012.3 |
| 20260505050714 | 47 | 53 | 2.6 | 7.8 | 0.00 | 0.01 | 0.00 | 87 | 1012.3 |
| 20260505041435 | 48 | 106 | 2.6 | 7.8 | 0.00 | 0.01 | 0.00 | 87 | 1012.0 |
| 20260505040933 | 48 | 96 | 3.5 | 7.8 | 0.00 | 0.01 | 0.00 | 87 | 1012.0 |
| 20260505040433 | 48 | 94 | 2.6 | 7.8 | 0.00 | 0.01 | 0.00 | 87 | 1012.0 |
| 20260505035933 | 48 | 28 | 2.6 | 7.0 | 0.00 | 0.01 | 0.00 | 87 | 1012.1 |
| 20260505035430 | 48 | 40 | 3.5 | 7.8 | 0.00 | 0.01 | 0.00 | 87 | 1012.0 |
| 20260505034929 | 48 | 46 | 3.5 | 7.8 | 0.00 | 0.01 | 0.00 | 87 | 1012.0 |
| 20260505034652 | 48 | 39 | 3.5 | 7.8 | 0.00 | 0.01 | 0.00 | 87 | 1012.0 |
| 20260505033928 | 48 | 53 | 3.5 | 8.7 | 0.00 | 0.01 | 0.00 | 87 | 1012.0 |
| 20260505033427 | 48 | 59 | 3.5 | 8.7 | 0.00 | 0.01 | 0.00 | 87 | 1012.0 |
| 20260505032928 | 48 | 61 | 3.5 | 7.8 | 0.00 | 0.01 | 0.00 | 87 | 1012.1 |
| 20260505032428 | 48 | 53 | 4.3 | 9.6 | 0.00 | 0.01 | 0.00 | 86 | 1012.1 |
| 20260505031924 | 48 | 32 | 5.2 | 9.6 | 0.00 | 0.01 | 0.00 | 87 | 1012.2 |
| 20260505031422 | 48 | 38 | 5.2 | 10.4 | 0.00 | 0.01 | 0.00 | 87 | 1012.2 |
| 20260505030922 | 48 | 30 | 5.2 | 10.4 | 0.00 | 0.01 | 0.00 | 87 | 1012.3 |
| 20260505030422 | 48 | 32 | 4.3 | 9.6 | 0.00 | 0.01 | 0.00 | 87 | 1012.3 |
| 20260505025922 | 48 | 46 | 4.3 | 10.4 | 0.00 | 0.01 | 0.00 | 87 | 1012.3 |
| 20260505025422 | 48 | 13 | 4.3 | 10.4 | 0.00 | 0.01 | 0.00 | 87 | 1012.3 |
| 20260505024922 | 48 | 44 | 3.5 | 8.7 | 0.00 | 0.01 | 0.00 | 87 | 1012.3 |
| 20260505024642 | 48 | 19 | 3.5 | 7.8 | 0.00 | 0.01 | 0.00 | 87 | 1012.3 |
| 20260505024144 | 48 | 41 | 3.5 | 7.8 | 0.00 | 0.01 | 0.00 | 87 | 1012.4 |